When you browse on this site, cookies collect data to enhance your experience and personalize the content and advertising you see.
Visit our Privacy Policy to learn more. By continuing to use the site, you agree to this use of cookies and data.

Tiempo cada hora Monte Patria

Hoy, 15 Agosto, Sábado

Tiempo Temperatura Precipitaciones Viento Presión Humedad
00:00 +11°C° 0 mm 0 mps 722 mmHg 67%
01:00 +10°C° 0 mm 0 mps 721 mmHg 68%
02:00 +10°C° 0 mm 0 mps 721 mmHg 67%
03:00 +10°C° 0 mm 0 mps 721 mmHg 66%
04:00 +9°C° 0 mm 0 mps 720 mmHg 66%
05:00 +10°C° 0 mm 0 mps 721 mmHg 64%
06:00 +10°C° 0 mm 0 mps 721 mmHg 62%
07:00 +11°C° 0 mm 0 mps 721 mmHg 59%
08:00 +14°C° 0 mm 1 mps 721 mmHg 50%
09:00 +16°C° 0 mm 1 mps 721 mmHg 41%
10:00 +20°C° 0 mm 1 mps 722 mmHg 32%
11:00 +21°C° 0 mm 1 mps 721 mmHg 29%
12:00 +21°C° 0 mm 2 mps 721 mmHg 27%
13:00 +23°C° 0 mm 2 mps 721 mmHg 25%
14:00 +23°C° 0 mm 2 mps 721 mmHg 27%
15:00 +23°C° 0 mm 2 mps 721 mmHg 28%
16:00 +21°C° 0 mm 2 mps 721 mmHg 30%
17:00 +20°C° 0 mm 2 mps 721 mmHg 38%
18:00 +19°C° 0 mm 1 mps 721 mmHg 47%
19:00 +15°C° 0 mm 0 mps 721 mmHg 55%
20:00 +15°C° 0 mm 0 mps 721 mmHg 57%
21:00 +14°C° 0 mm 0 mps 721 mmHg 58%
22:00 +13°C° 0 mm 0 mps 721 mmHg 59%
23:00 +13°C° 0 mm 0 mps 721 mmHg 59%

Mañana, 16 Agosto, Domingo

Tiempo Temperatura Precipitaciones Viento Presión Humedad
00:00 +12°C° 0 mm 0 mps 721 mmHg 58%
01:00 +12°C° 0 mm 0 mps 721 mmHg 58%
02:00 +12°C° 0 mm 0 mps 720 mmHg 58%
03:00 +11°C° 0 mm 0 mps 720 mmHg 59%
04:00 +11°C° 0 mm 0 mps 720 mmHg 59%
05:00 +11°C° 0 mm 0 mps 720 mmHg 56%
06:00 +12°C° 0 mm 0 mps 720 mmHg 54%
07:00 +12°C° 0 mm 0 mps 721 mmHg 52%
08:00 +16°C° 0 mm 1 mps 721 mmHg 45%
09:00 +19°C° 0 mm 1 mps 721 mmHg 37%
10:00 +20°C° 0 mm 2 mps 722 mmHg 30%
11:00 +21°C° 0 mm 2 mps 721 mmHg 29%
12:00 +23°C° 0 mm 2 mps 721 mmHg 29%
13:00 +23°C° 0 mm 2 mps 721 mmHg 28%
14:00 +23°C° 0 mm 2 mps 721 mmHg 30%
15:00 +23°C° 0 mm 2 mps 721 mmHg 32%
16:00 +23°C° 0 mm 2 mps 721 mmHg 33%
17:00 +21°C° 0 mm 1 mps 721 mmHg 41%
18:00 +19°C° 0 mm 1 mps 721 mmHg 49%
19:00 +15°C° 0 mm 0 mps 721 mmHg 57%
20:00 +15°C° 0 mm 0 mps 721 mmHg 58%
21:00 +14°C° 0 mm 0 mps 721 mmHg 58%
22:00 +14°C° 0 mm 0 mps 721 mmHg 59%
23:00 +13°C° 0 mm 0 mps 721 mmHg 60%

Pasado mañana, 17 Agosto, Lunes

Tiempo Temperatura Precipitaciones Viento Presión Humedad
00:00 +12°C° 0 mm 0 mps 721 mmHg 61%
01:00 +12°C° 0 mm 0 mps 721 mmHg 62%
02:00 +11°C° 0 mm 0 mps 721 mmHg 63%
03:00 +11°C° 0 mm 0 mps 721 mmHg 65%
04:00 +11°C° 0 mm 0 mps 721 mmHg 66%
05:00 +11°C° 0 mm 0 mps 721 mmHg 65%
06:00 +11°C° 0 mm 0 mps 721 mmHg 63%
07:00 +12°C° 0 mm 0 mps 721 mmHg 62%
08:00 +15°C° 0 mm 1 mps 722 mmHg 55%
09:00 +18°C° 0 mm 1 mps 722 mmHg 48%
10:00 +19°C° 0 mm 2 mps 722 mmHg 41%
11:00 +19°C° 0 mm 2 mps 722 mmHg 40%
12:00 +20°C° 0 mm 2 mps 721 mmHg 39%
13:00 +21°C° 0 mm 3 mps 721 mmHg 38%
14:00 +20°C° 0 mm 3 mps 721 mmHg 39%
15:00 +20°C° 0 mm 2 mps 721 mmHg 41%
16:00 +20°C° 0 mm 2 mps 721 mmHg 43%
17:00 +18°C° 0 mm 2 mps 721 mmHg 50%
18:00 +18°C° 0 mm 1 mps 721 mmHg 57%
19:00 +15°C° 0 mm 1 mps 721 mmHg 65%
20:00 +13°C° 0 mm 0 mps 721 mmHg 68%
21:00 +13°C° 0 mm 0 mps 721 mmHg 71%
22:00 +12°C° 0 mm 0 mps 721 mmHg 74%
23:00 +11°C° 0 mm 0 mps 721 mmHg 77%

18 Agosto, Martes

Tiempo Temperatura Precipitaciones Viento Presión Humedad
00:00 +11°C° 0 mm 0 mps 721 mmHg 80%
01:00 +10°C° 0 mm 0 mps 721 mmHg 82%
02:00 +10°C° 0 mm 0 mps 721 mmHg 85%
03:00 +9°C° 0 mm 0 mps 721 mmHg 87%
04:00 +9°C° 0 mm 0 mps 721 mmHg 90%
05:00 +9°C° 0 mm 0 mps 721 mmHg 89%
06:00 +9°C° 0 mm 0 mps 722 mmHg 87%
07:00 +10°C° 0 mm 0 mps 722 mmHg 86%
08:00 +11°C° 0 mm 1 mps 722 mmHg 81%
09:00 +12°C° 0 mm 1 mps 722 mmHg 77%
10:00 +13°C° 0 mm 2 mps 722 mmHg 72%
11:00 +14°C° 0 mm 2 mps 722 mmHg 69%
12:00 +14°C° 0 mm 2 mps 722 mmHg 66%
13:00 +14°C° 0 mm 2 mps 722 mmHg 64%
14:00 +14°C° 0 mm 2 mps 722 mmHg 64%
15:00 +14°C° 0 mm 2 mps 722 mmHg 63%
16:00 +14°C° 0 mm 2 mps 722 mmHg 63%
17:00 +13°C° 0 mm 2 mps 722 mmHg 68%
18:00 +12°C° 0 mm 1 mps 723 mmHg 74%
19:00 +12°C° 0 mm 1 mps 723 mmHg 79%
20:00 +10°C° 0 mm 0 mps 723 mmHg 79%
21:00 +10°C° 0 mm 0 mps 723 mmHg 79%
22:00 +10°C° 0 mm 0 mps 723 mmHg 79%
23:00 +10°C° 0 mm 0 mps 723 mmHg 80%

19 Agosto, Miércoles

Tiempo Temperatura Precipitaciones Viento Presión Humedad
00:00 +9°C° 0 mm 0 mps 723 mmHg 82%
01:00 +9°C° 0 mm 0 mps 723 mmHg 83%
02:00 +8°C° 0 mm 0 mps 723 mmHg 84%
03:00 +8°C° 0 mm 0 mps 723 mmHg 84%
04:00 +7°C° 0 mm 0 mps 723 mmHg 85%
05:00 +8°C° 0 mm 0 mps 723 mmHg 83%
06:00 +9°C° 0 mm 0 mps 724 mmHg 80%
07:00 +9°C° 0 mm 0 mps 724 mmHg 78%
08:00 +11°C° 0 mm 0 mps 724 mmHg 69%
09:00 +13°C° 0 mm 1 mps 724 mmHg 61%
10:00 +15°C° 0 mm 2 mps 724 mmHg 52%
11:00 +16°C° 0 mm 2 mps 724 mmHg 48%
12:00 +17°C° 0 mm 2 mps 724 mmHg 44%
13:00 +18°C° 0 mm 3 mps 723 mmHg 40%
14:00 +18°C° 0 mm 3 mps 723 mmHg 42%
15:00 +17°C° 0 mm 2 mps 724 mmHg 43%
16:00 +17°C° 0 mm 2 mps 724 mmHg 45%
17:00 +16°C° 0 mm 2 mps 724 mmHg 53%
18:00 +14°C° 0 mm 1 mps 724 mmHg 60%
19:00 +12°C° 0 mm 0 mps 724 mmHg 68%
20:00 +12°C° 0 mm 0 mps 724 mmHg 69%
21:00 +11°C° 0 mm 0 mps 725 mmHg 71%
22:00 +11°C° 0 mm 0 mps 725 mmHg 72%
23:00 +10°C° 0 mm 0 mps 724 mmHg 72%

20 Agosto, Jueves

Tiempo Temperatura Precipitaciones Viento Presión Humedad
00:00 +10°C° 0 mm 0 mps 724 mmHg 72%
01:00 +9°C° 0 mm 0 mps 724 mmHg 73%
02:00 +9°C° 0 mm 0 mps 724 mmHg 71%
03:00 +9°C° 0 mm 0 mps 724 mmHg 70%
04:00 +8°C° 0 mm 0 mps 724 mmHg 68%
05:00 +9°C° 0 mm 0 mps 724 mmHg 64%
06:00 +10°C° 0 mm 0 mps 724 mmHg 59%
07:00 +11°C° 0 mm 0 mps 725 mmHg 55%
08:00 +14°C° 0 mm 1 mps 725 mmHg 45%
09:00 +18°C° 0 mm 1 mps 725 mmHg 35%
10:00 +20°C° 0 mm 1 mps 725 mmHg 25%
11:00 +21°C° 0 mm 1 mps 725 mmHg 24%
12:00 +21°C° 0 mm 2 mps 724 mmHg 22%
13:00 +23°C° 0 mm 2 mps 724 mmHg 20%
14:00 +23°C° 0 mm 2 mps 724 mmHg 21%
15:00 +21°C° 0 mm 2 mps 724 mmHg 23%
16:00 +21°C° 0 mm 2 mps 724 mmHg 24%
17:00 +19°C° 0 mm 2 mps 724 mmHg 32%
18:00 +18°C° 0 mm 1 mps 723 mmHg 41%
19:00 +14°C° 0 mm 0 mps 723 mmHg 49%
20:00 +14°C° 0 mm 0 mps 723 mmHg 47%
21:00 +15°C° 0 mm 1 mps 723 mmHg 45%
22:00 +14°C° 0 mm 1 mps 723 mmHg 42%
23:00 +14°C° 0 mm 1 mps 723 mmHg 37%
Mostrar más